Location: Newark
(35.6799°N, 139.7636°E)
Time: 05:01:17
(UTC+00:00)

Courier 1B Rocket - Pass Details

Date: 16 December 2019
Orbit: 920 x 1202 km, 28.2° (Epoch: 20 January)

Event Time Altitude Azimuth Distance (km) Brightness Sun altitude
Exits shadow 20:03:54 20° 242° (WSW) 2,334 6.6 -19.7°
Maximum altitude 20:08:46 47° 179° (S) 1,394 5.9 -18.7°
Drops below altitude 10° 20:15:18 10° 107° (ESE) 2,806 8.7 -17.5°
Sets 20:18:00 0° 102° (ESE) 3,716 9.8 -16.9°
